Berea, KY

7:27 PM EDT on August 31, 2016 (GMT -0400)
Richmond

Weather History for KI39 - January, 2014

Change the Weather History Date:

Thursday, January 2, 2014

  Actual Average (KLOZ) Record (KLOZ)
Temperature  
Mean Temperature 28 °F 36 °F  
Max Temperature 41 °F 45 °F 67 °F (2000)
Min Temperature 14 °F 27 °F -1 °F (1977)
Degree Days  
Heating Degree Days 38 29  
Month to date heating degree days 58  
Since 1 July heating degree days 1710  
Cooling Degree Days 0 0  
Month to date cooling degree days 0  
Year to date cooling degree days 0  
Moisture  
Dew Point 26 °F    
Average Humidity 82    
Maximum Humidity 100    
Minimum Humidity 56    
Precipitation  
Precipitation 0.00 in 0.12 in 0.98 in (1972)
Month to date precipitation 0.23  
Year to date precipitation 0.23  
Sea Level Pressure  
Sea Level Pressure 29.94 in    
Wind  
Wind Speed 9 mph (West)    
Max Wind Speed 23 mph    
Max Gust Speed 30 mph    
Visibility 6 miles    
Events      
T = Trace of Precipitation, MM = Missing Value Source: NWS Daily Summary

Daily Weather History Graph

Daily Weather History Graph

Search for Another Location

Airport or City:

Trip Planner

Search our weather history database for the weather conditions in past years. The results will help you decide how hot, cold, wet, or windy it might be!

Date:

Astronomy

Jan. 02, 2014 Rise Set
Actual Time 7:52 AM EST 5:30 PM EST
Civil Twilight 7:23 AM EST 5:59 PM EST
Nautical Twilight 6:50 AM EST 6:32 PM EST
Astronomical Twilight 6:18 AM EST 7:04 PM EST
Moon 8:35 AM EST (1/2) 7:23 PM EST (1/2)
Length of Visible Light 10h 36m
Length of Day
9h 37m
New Moon, 2% of the Moon is Illuminated
Jan 2
New Moon
Jan 7
First Quarter
Jan 15
Full
Jan 24
Last Quarter
Jan 30
New

Hourly Weather History & Observations

Time (EST) Temp. Windchill Dew Point Humidity Pressure Visibility Wind Dir Wind Speed Gust Speed Precip Events Conditions
12:15 AM 39.2 °F 35.9 °F 24.8 °F 56% 29.99 in 10.0 mi South 4.6 mph - N/A   Clear
12:35 AM 39.2 °F 35.9 °F 24.8 °F 56% 29.98 in 10.0 mi South 4.6 mph - N/A   Clear
12:55 AM 39.2 °F 35.9 °F 24.8 °F 56% 29.98 in 10.0 mi South 4.6 mph - N/A   Mostly Cloudy
1:15 AM 39.2 °F 35.9 °F 26.6 °F 61% 29.97 in 10.0 mi South 4.6 mph - N/A   Overcast
1:35 AM 39.2 °F 34.2 °F 26.6 °F 61% 29.97 in 10.0 mi South 6.9 mph - N/A   Overcast
1:55 AM 39.2 °F 34.2 °F 28.4 °F 65% 29.98 in 10.0 mi SSW 6.9 mph - N/A   Overcast
2:15 AM 41.0 °F 36.4 °F 28.4 °F 61% 29.97 in 10.0 mi SSW 6.9 mph - N/A   Overcast
2:35 AM 41.0 °F 35.8 °F 28.4 °F 61% 29.96 in 10.0 mi SSW 8.1 mph - N/A   Overcast
2:55 AM 41.0 °F 36.4 °F 28.4 °F 61% 29.96 in 10.0 mi SSW 6.9 mph - N/A   Overcast
3:15 AM 41.0 °F 36.4 °F 28.4 °F 61% 29.96 in 10.0 mi SSW 6.9 mph - N/A   Overcast
3:35 AM 41.0 °F 36.4 °F 30.2 °F 65% 29.96 in 10.0 mi SSW 6.9 mph - N/A   Overcast
3:55 AM 41.0 °F 36.4 °F 30.2 °F 65% 29.94 in 10.0 mi SSW 6.9 mph - N/A   Overcast
4:15 AM 41.0 °F 35.8 °F 30.2 °F 65% 29.93 in 10.0 mi SSW 8.1 mph - N/A   Overcast
4:35 AM 39.2 °F 33.0 °F 32.0 °F 75% 29.93 in 10.0 mi SSW 9.2 mph - N/A   Overcast
4:55 AM 39.2 °F 35.0 °F 32.0 °F 75% 29.91 in 10.0 mi SSW 5.8 mph - N/A   Overcast
5:15 AM 39.2 °F 34.2 °F 32.0 °F 75% 29.89 in 10.0 mi South 6.9 mph - N/A   Overcast
5:35 AM 39.2 °F 33.6 °F 33.8 °F 81% 29.88 in 10.0 mi South 8.1 mph - N/A   Overcast
5:55 AM 39.2 °F 33.6 °F 33.8 °F 81% 29.86 in 10.0 mi South 8.1 mph - N/A   Overcast
6:15 AM 39.2 °F 34.2 °F 33.8 °F 81% 29.86 in 10.0 mi South 6.9 mph - N/A   Overcast
6:35 AM 39.2 °F 35.9 °F 35.6 °F 87% 29.85 in 10.0 mi SSW 4.6 mph - N/A   Overcast
6:55 AM 39.2 °F 35.9 °F 35.6 °F 87% 29.84 in 7.0 mi SSW 4.6 mph - N/A   Overcast
7:15 AM 39.2 °F 37.0 °F 35.6 °F 87% 29.84 in 10.0 mi South 3.5 mph - N/A   Overcast
7:35 AM 39.2 °F 35.0 °F 35.6 °F 87% 29.83 in 5.0 mi South 5.8 mph - N/A   Overcast
7:55 AM 39.2 °F 35.9 °F 35.6 °F 87% 29.82 in 7.0 mi South 4.6 mph - N/A   Overcast
8:15 AM 39.2 °F 35.9 °F 35.6 °F 87% 29.81 in 7.0 mi SSW 4.6 mph - N/A   Overcast
8:35 AM 39.2 °F 37.0 °F 37.4 °F 93% 29.81 in 3.0 mi SW 3.5 mph - N/A   Overcast
8:55 AM 39.2 °F 37.0 °F 37.4 °F 93% 29.80 in 2.0 mi SSW 3.5 mph - N/A   Overcast
9:15 AM 39.2 °F 35.0 °F 37.4 °F 93% 29.80 in 2.0 mi SSW 5.8 mph - N/A   Overcast
9:35 AM 39.2 °F 35.0 °F 37.4 °F 93% 29.80 in 1.8 mi SW 5.8 mph - N/A   Overcast
9:55 AM 39.2 °F 35.0 °F 37.4 °F 93% 29.81 in 2.0 mi SW 5.8 mph - N/A   Overcast
10:15 AM 39.2 °F 35.0 °F 37.4 °F 93% 29.80 in 4.0 mi WSW 5.8 mph - N/A   Overcast
10:35 AM 39.2 °F 33.6 °F 39.2 °F 100% 29.81 in 7.0 mi WSW 8.1 mph - N/A   Overcast
10:55 AM 39.2 °F 33.6 °F 37.4 °F 93% 29.80 in 7.0 mi West 8.1 mph - N/A   Overcast
11:15 AM 39.2 °F 32.5 °F 37.4 °F 93% 29.80 in 10.0 mi WNW 10.4 mph - N/A   Overcast
11:35 AM 39.2 °F 31.2 °F 37.4 °F 93% 29.80 in 5.0 mi WNW 13.8 mph - N/A   Overcast
11:55 AM 37.4 °F 28.5 °F 33.8 °F 87% 29.79 in 3.0 mi West 15.0 mph 23.0 mph N/A   Overcast
12:15 PM 35.6 °F 26.2 °F 33.8 °F 93% 29.79 in 4.0 mi West 15.0 mph 18.4 mph N/A   Overcast
12:35 PM 35.6 °F 27.5 °F 33.8 °F 93% 29.79 in 7.0 mi WNW 11.5 mph 21.9 mph N/A   Overcast
12:55 PM 33.8 °F 25.3 °F 32.0 °F 93% 29.80 in 4.0 mi WNW 11.5 mph - N/A   Overcast
1:15 PM 33.8 °F 23.9 °F 32.0 °F 93% 29.80 in 3.0 mi West 15.0 mph 19.6 mph N/A   Overcast
1:35 PM 33.8 °F 23.9 °F 32.0 °F 93% 29.80 in 2.5 mi WNW 15.0 mph 24.2 mph N/A   Overcast
1:55 PM 32.0 °F 21.6 °F 32.0 °F 100% 29.81 in 1.5 mi WNW 15.0 mph 23.0 mph N/A   Overcast
2:15 PM 32.0 °F 21.6 °F 30.2 °F 93% 29.81 in 1.2 mi WNW 15.0 mph 19.6 mph N/A   Overcast
2:35 PM 32.0 °F 20.5 °F 30.2 °F 93% 29.82 in 3.0 mi WNW 18.4 mph 25.3 mph N/A   Overcast
2:55 PM 30.2 °F 17.8 °F 28.4 °F 93% 29.84 in 5.0 mi WNW 19.6 mph 25.3 mph N/A   Overcast
3:15 PM 28.4 °F 14.7 °F 28.4 °F 100% 29.86 in 3.0 mi WNW 21.9 mph 27.6 mph N/A   Overcast
3:35 PM 28.4 °F 14.4 °F 26.6 °F 93% 29.88 in 2.5 mi WNW 23.0 mph 29.9 mph N/A   Overcast
3:55 PM 26.6 °F 12.4 °F 24.8 °F 93% 29.90 in 4.0 mi WNW 21.9 mph 26.5 mph N/A   Overcast
4:15 PM 24.8 °F 10.7 °F 23.0 °F 93% 29.92 in 5.0 mi WNW 19.6 mph 27.6 mph N/A   Overcast
4:35 PM 23.0 °F 8.0 °F 21.2 °F 93% 29.93 in 5.0 mi WNW 20.7 mph 28.8 mph N/A   Overcast
4:55 PM 23.0 °F 10.1 °F 21.2 °F 93% 29.95 in 2.5 mi West 15.0 mph 23.0 mph N/A   Overcast
5:15 PM 23.0 °F 10.6 °F 19.4 °F 86% 29.96 in 1.0 mi WNW 13.8 mph 21.9 mph N/A   Overcast
5:35 PM 23.0 °F 9.2 °F 19.4 °F 86% 29.98 in 2.5 mi WNW 17.3 mph 24.2 mph N/A   Overcast
5:55 PM 21.2 °F 7.3 °F 17.6 °F 86% 29.99 in 1.8 mi NW 16.1 mph 24.2 mph N/A   Overcast
6:15 PM 19.4 °F 6.0 °F 17.6 °F 93% 30.01 in 2.0 mi WNW 13.8 mph 23.0 mph N/A   Overcast
6:35 PM 19.4 °F 4.5 °F 14.0 °F 80% 30.02 in 4.0 mi NW 17.3 mph 23.0 mph N/A   Overcast
6:55 PM 17.6 °F 1.3 °F 12.2 °F 79% 30.04 in 5.0 mi NW 19.6 mph 28.8 mph N/A   Overcast
7:15 PM 17.6 °F 3.7 °F 14.0 °F 86% 30.06 in 5.0 mi NW 13.8 mph 24.2 mph N/A   Overcast
7:35 PM 17.6 °F 3.2 °F 14.0 °F 86% 30.07 in 4.0 mi NW 15.0 mph 23.0 mph N/A   Overcast
7:55 PM 17.6 °F 1.3 °F 14.0 °F 86% 30.08 in 2.5 mi NW 19.6 mph 25.3 mph N/A   Overcast
8:15 PM 17.6 °F 1.3 °F 12.2 °F 79% 30.10 in 3.0 mi NW 19.6 mph 27.6 mph N/A   Overcast
8:35 PM 17.6 °F 1.7 °F 12.2 °F 79% 30.11 in 4.0 mi NW 18.4 mph 28.8 mph N/A   Overcast
8:55 PM 17.6 °F 2.2 °F 12.2 °F 79% 30.13 in 3.0 mi NNW 17.3 mph - N/A   Overcast
9:15 PM 15.8 °F 2.1 °F 12.2 °F 86% 30.14 in 4.0 mi NW 12.7 mph 23.0 mph N/A   Overcast
9:35 PM 15.8 °F -1.5 °F 10.4 °F 79% 30.15 in 4.0 mi NNW 20.7 mph 29.9 mph N/A   Overcast
9:55 PM 15.8 °F 1.4 °F 10.4 °F 79% 30.16 in 5.0 mi NNW 13.8 mph 23.0 mph N/A   Overcast
10:15 PM 15.8 °F 0.9 °F 8.6 °F 73% 30.18 in 7.0 mi NNW 15.0 mph 25.3 mph N/A   Overcast
10:35 PM 14.0 °F -0.2 °F 8.6 °F 79% 30.19 in 7.0 mi NNW 12.7 mph 24.2 mph N/A   Overcast
10:55 PM 14.0 °F 1.2 °F 8.6 °F 79% 30.20 in 10.0 mi NNW 10.4 mph 24.2 mph N/A   Overcast
11:15 PM 14.0 °F -1.4 °F 8.6 °F 79% 30.20 in 10.0 mi NNW 15.0 mph 19.6 mph N/A   Overcast
11:35 PM 14.0 °F 0.5 °F 8.6 °F 79% 30.22 in 10.0 mi NW 11.5 mph - N/A   Overcast
11:55 PM 14.0 °F -0.2 °F 8.6 °F 79% 30.23 in 10.0 mi NNW 12.7 mph 18.4 mph N/A   Overcast